Voltar ao catálogo

STARLINK-5777

AtivoComunicaçõesVLEO
NORAD 56027·PAYLOAD·🇺🇸 United States

Lançado Mar 24, 2023 de Cape Canaveral Space Force Station

Loading…

Próximas Passagens (próximas 24 horas)

TLE

AtualizadoSource: CelesTrak SupGP

Época: Sep 15, 2026, 02:39 UTC

1 56027C 23042AT  26258.11090278 -.00037637  00000+0 -13635-2 0  2587
2 56027  43.0016  55.0840 0001382 265.3914 308.9396 15.27591192    13

Acompanhe STARLINK-5777 em tempo real com AllMySat

Download on the App Store